Time,TemperatureF,DewpointF,PressureIn,WindDirection,WindDirectionDegrees,WindSpeedMPH,WindSpeedGustMPH,Humidity,HourlyPrecipIn,Conditions,Clouds,dailyrainin,SoftwareType,DateUTC
2013-07-08 00:04:00,73.2,51.6,29.84,WNW,298,7.0,11.0,36,0.00,,,0.00,meteohub,2013-07-08 07:04:00,
2013-07-08 00:09:00,73.6,51.6,29.84,WNW,302,7.0,9.0,36,0.00,,,0.00,meteohub,2013-07-08 07:09:00,
2013-07-08 00:14:00,73.2,51.6,29.84,WSW,256,3.0,9.0,36,0.00,,,0.00,meteohub,2013-07-08 07:14:00,
2013-07-08 00:19:00,73.0,51.6,29.84,WSW,252,4.0,10.0,36,0.00,,,0.00,meteohub,2013-07-08 07:19:00,
2013-07-08 00:24:00,73.0,51.4,29.84,West,273,4.0,10.0,36,0.00,,,0.00,meteohub,2013-07-08 07:24:00,
2013-07-08 00:30:00,73.0,51.4,29.84,WSW,243,7.0,12.0,36,0.00,,,0.00,meteohub,2013-07-08 07:30:00,
2013-07-08 00:35:00,73.2,51.4,29.84,NW,319,6.0,12.0,36,0.00,,,0.00,meteohub,2013-07-08 07:35:00,
2013-07-08 00:40:00,73.4,51.4,29.84,West,271,7.0,11.0,36,0.00,,,0.00,meteohub,2013-07-08 07:40:00,
2013-07-08 00:45:00,73.6,51.3,29.83,WNW,294,9.0,12.0,36,0.00,,,0.00,meteohub,2013-07-08 07:45:00,
2013-07-08 00:50:00,73.4,51.3,29.84,WNW,291,10.0,12.0,36,0.00,,,0.00,meteohub,2013-07-08 07:50:00,
2013-07-08 00:55:00,73.6,51.3,29.84,WNW,283,7.0,12.0,36,0.00,,,0.00,meteohub,2013-07-08 07:55:00,
2013-07-08 01:01:00,73.2,51.3,29.83,WNW,290,6.0,12.0,36,0.00,,,0.00,meteohub,2013-07-08 08:01:00,
2013-07-08 01:06:00,72.9,51.3,29.84,WNW,284,6.0,12.0,36,0.00,,,0.00,meteohub,2013-07-08 08:06:00,
2013-07-08 01:11:00,72.3,51.1,29.84,West,267,7.0,11.0,36,0.00,,,0.00,meteohub,2013-07-08 08:11:00,
2013-07-08 01:16:00,72.3,51.1,29.84,WNW,283,6.0,12.0,36,0.00,,,0.00,meteohub,2013-07-08 08:16:00,
2013-07-08 01:21:00,72.1,51.1,29.84,West,270,7.0,12.0,36,0.00,,,0.00,meteohub,2013-07-08 08:21:00,
2013-07-08 01:26:00,72.1,51.1,29.84,SW,233,10.0,12.0,36,0.00,,,0.00,meteohub,2013-07-08 08:26:00,
2013-07-08 01:31:00,72.0,51.1,29.84,WNW,283,8.0,12.0,36,0.00,,,0.00,meteohub,2013-07-08 08:31:00,
2013-07-08 01:36:00,72.0,50.9,29.84,West,281,8.0,12.0,36,0.00,,,0.00,meteohub,2013-07-08 08:36:00,
2013-07-08 01:41:00,72.0,50.9,29.84,West,273,8.0,10.0,36,0.00,,,0.00,meteohub,2013-07-08 08:41:00,
2013-07-08 01:47:00,71.8,50.2,29.84,West,280,7.0,10.0,35,0.00,,,0.00,meteohub,2013-07-08 08:47:00,
2013-07-08 01:52:00,71.8,50.2,29.84,West,271,8.0,10.0,35,0.00,,,0.00,meteohub,2013-07-08 08:52:00,
2013-07-08 01:57:00,72.0,50.0,29.84,West,276,7.0,10.0,35,0.00,,,0.00,meteohub,2013-07-08 08:57:00,
2013-07-08 02:02:00,71.8,50.0,29.84,WNW,302,5.0,10.0,35,0.00,,,0.00,meteohub,2013-07-08 09:02:00,
2013-07-08 02:07:00,71.4,50.0,29.84,WNW,287,7.0,10.0,35,0.00,,,0.00,meteohub,2013-07-08 09:07:00,
2013-07-08 02:12:00,71.2,50.0,29.83,WSW,252,7.0,10.0,35,0.00,,,0.00,meteohub,2013-07-08 09:12:00,
2013-07-08 02:17:00,70.9,49.8,29.83,West,264,3.0,9.0,35,0.00,,,0.00,meteohub,2013-07-08 09:17:00,
2013-07-08 02:22:00,70.7,49.8,29.83,WSW,256,4.0,8.0,35,0.00,,,0.00,meteohub,2013-07-08 09:22:00,
2013-07-08 02:27:00,70.3,49.8,29.83,West,260,3.0,8.0,35,0.00,,,0.00,meteohub,2013-07-08 09:27:00,
2013-07-08 02:33:00,70.7,49.8,29.84,West,264,3.0,7.0,35,0.00,,,0.00,meteohub,2013-07-08 09:33:00,
2013-07-08 02:38:00,70.3,49.6,29.83,WSW,256,4.0,7.0,35,0.00,,,0.00,meteohub,2013-07-08 09:38:00,
2013-07-08 02:43:00,70.5,49.6,29.83,West,278,2.0,8.0,35,0.00,,,0.00,meteohub,2013-07-08 09:43:00,
2013-07-08 02:48:00,70.2,49.5,29.83,West,269,4.0,8.0,35,0.00,,,0.00,meteohub,2013-07-08 09:48:00,
2013-07-08 02:53:00,70.3,49.5,29.83,West,269,2.0,8.0,35,0.00,,,0.00,meteohub,2013-07-08 09:53:00,
2013-07-08 02:59:00,70.0,49.5,29.83,WNW,288,2.0,7.0,35,0.00,,,0.00,meteohub,2013-07-08 09:59:00,
2013-07-08 03:04:00,69.6,49.5,29.83,SW,236,4.0,5.0,35,0.00,,,0.00,meteohub,2013-07-08 10:04:00,
2013-07-08 03:09:00,70.0,49.3,29.83,WSW,255,5.0,5.0,35,0.00,,,0.00,meteohub,2013-07-08 10:09:00,
2013-07-08 03:14:00,70.2,49.3,29.83,West,262,6.0,6.0,35,0.00,,,0.00,meteohub,2013-07-08 10:14:00,
2013-07-08 03:19:00,70.5,49.3,29.83,West,269,6.0,6.0,35,0.00,,,0.00,meteohub,2013-07-08 10:19:00,
2013-07-08 03:25:00,70.5,49.3,29.83,WSW,250,6.0,8.0,35,0.00,,,0.00,meteohub,2013-07-08 10:25:00,
2013-07-08 03:30:00,70.3,49.1,29.83,West,260,4.0,10.0,35,0.00,,,0.00,meteohub,2013-07-08 10:30:00,
2013-07-08 03:35:00,70.2,49.1,29.83,WSW,253,6.0,10.0,35,0.00,,,0.00,meteohub,2013-07-08 10:35:00,
2013-07-08 03:40:00,70.2,49.1,29.83,WNW,285,4.0,10.0,35,0.00,,,0.00,meteohub,2013-07-08 10:40:00,
2013-07-08 03:45:00,70.0,49.1,29.83,NE,42,2.0,11.0,35,0.00,,,0.00,meteohub,2013-07-08 10:45:00,
2013-07-08 03:50:00,70.0,48.9,29.83,WSW,256,5.0,11.0,35,0.00,,,0.00,meteohub,2013-07-08 10:50:00,
2013-07-08 03:55:00,70.0,48.9,29.83,WSW,242,5.0,8.0,35,0.00,,,0.00,meteohub,2013-07-08 10:55:00,
2013-07-08 04:00:00,70.2,48.9,29.83,West,277,5.0,7.0,35,0.00,,,0.00,meteohub,2013-07-08 11:00:00,
2013-07-08 04:06:00,70.2,48.9,29.83,NW,321,3.0,7.0,35,0.00,,,0.00,meteohub,2013-07-08 11:06:00,
2013-07-08 04:11:00,70.5,48.9,29.83,West,263,5.0,8.0,35,0.00,,,0.00,meteohub,2013-07-08 11:11:00,
2013-07-08 04:16:00,70.5,48.9,29.83,West,262,8.0,8.0,35,0.00,,,0.00,meteohub,2013-07-08 11:16:00,
2013-07-08 04:21:00,70.7,48.9,29.83,West,280,7.0,8.0,35,0.00,,,0.00,meteohub,2013-07-08 11:21:00,
2013-07-08 04:26:00,70.7,48.7,29.83,WNW,285,7.0,9.0,35,0.00,,,0.00,meteohub,2013-07-08 11:26:00,
2013-07-08 04:32:00,70.5,48.7,29.83,WNW,291,5.0,9.0,35,0.00,,,0.00,meteohub,2013-07-08 11:32:00,
2013-07-08 04:37:00,70.5,48.7,29.83,WSW,252,5.0,9.0,35,0.00,,,0.00,meteohub,2013-07-08 11:37:00,
2013-07-08 04:42:00,70.5,48.6,29.83,SW,235,3.0,10.0,35,0.00,,,0.00,meteohub,2013-07-08 11:42:00,
2013-07-08 04:47:00,70.2,48.6,29.84,West,273,1.0,10.0,35,0.00,,,0.00,meteohub,2013-07-08 11:47:00,
2013-07-08 04:52:00,70.3,48.6,29.84,West,280,5.0,10.0,35,0.00,,,0.00,meteohub,2013-07-08 11:52:00,
2013-07-08 04:57:00,71.1,48.6,29.84,West,273,6.0,10.0,35,0.00,,,0.00,meteohub,2013-07-08 11:57:00,
2013-07-08 05:02:00,71.1,48.4,29.84,North,0,2.0,10.0,35,0.00,,,0.00,meteohub,2013-07-08 12:02:00,
2013-07-08 05:07:00,70.7,48.4,29.84,WSW,245,4.0,10.0,35,0.00,,,0.00,meteohub,2013-07-08 12:07:00,
2013-07-08 05:12:00,70.7,48.4,29.85,WSW,245,4.0,9.0,35,0.00,,,0.00,meteohub,2013-07-08 12:12:00,
2013-07-08 05:17:00,70.7,48.4,29.84,WSW,255,6.0,8.0,35,0.00,,,0.00,meteohub,2013-07-08 12:17:00,
2013-07-08 05:22:00,71.1,48.2,29.85,West,264,5.0,8.0,35,0.00,,,0.00,meteohub,2013-07-08 12:22:00,
2013-07-08 05:27:00,71.2,48.2,29.85,WNW,292,2.0,8.0,35,0.00,,,0.00,meteohub,2013-07-08 12:27:00,
2013-07-08 05:33:00,71.6,48.2,29.85,West,263,2.0,8.0,35,0.00,,,0.00,meteohub,2013-07-08 12:33:00,
2013-07-08 05:38:00,71.6,48.2,29.85,SE,131,1.0,7.0,35,0.00,,,0.00,meteohub,2013-07-08 12:38:00,
2013-07-08 05:43:00,71.2,48.0,29.85,WSW,238,2.0,7.0,35,0.00,,,0.00,meteohub,2013-07-08 12:43:00,
2013-07-08 05:49:00,71.2,48.0,29.85,WSW,245,3.0,7.0,35,0.00,,,0.00,meteohub,2013-07-08 12:49:00,
2013-07-08 05:54:00,71.4,48.0,29.86,NW,314,1.0,5.0,35,0.00,,,0.00,meteohub,2013-07-08 12:54:00,
2013-07-08 05:59:00,71.4,47.8,29.85,WSW,248,1.0,4.0,35,0.00,,,0.00,meteohub,2013-07-08 12:59:00,
2013-07-08 06:04:00,72.1,47.8,29.86,West,262,4.0,4.0,35,0.00,,,0.00,meteohub,2013-07-08 13:04:00,
2013-07-08 06:09:00,73.4,47.8,29.86,West,264,4.0,7.0,35,0.00,,,0.00,meteohub,2013-07-08 13:09:00,
2013-07-08 06:15:00,73.6,47.8,29.86,West,264,2.0,7.0,35,0.00,,,0.00,meteohub,2013-07-08 13:15:00,
2013-07-08 06:20:00,74.3,47.7,29.86,West,259,2.0,7.0,35,0.00,,,0.00,meteohub,2013-07-08 13:20:00,
2013-07-08 06:25:00,74.7,47.7,29.86,West,277,3.0,9.0,35,0.00,,,0.00,meteohub,2013-07-08 13:25:00,
2013-07-08 06:30:00,75.0,47.7,29.86,West,276,5.0,9.0,35,0.00,,,0.00,meteohub,2013-07-08 13:30:00,
2013-07-08 06:36:00,75.4,47.7,29.87,West,278,3.0,9.0,35,0.00,,,0.00,meteohub,2013-07-08 13:36:00,
2013-07-08 06:41:00,75.7,47.7,29.87,WNW,288,2.0,7.0,35,0.00,,,0.00,meteohub,2013-07-08 13:41:00,
2013-07-08 06:46:00,76.3,47.5,29.88,NNE,29,2.0,5.0,35,0.00,,,0.00,meteohub,2013-07-08 13:46:00,
2013-07-08 06:51:00,76.8,47.5,29.88,NW,319,1.0,6.0,35,0.00,,,0.00,meteohub,2013-07-08 13:51:00,
2013-07-08 06:56:00,77.7,47.5,29.88,NNE,18,1.0,6.0,35,0.00,,,0.00,meteohub,2013-07-08 13:56:00,
2013-07-08 07:02:00,78.4,47.5,29.88,NE,54,2.0,6.0,35,0.00,,,0.00,meteohub,2013-07-08 14:02:00,
2013-07-08 07:07:00,78.8,47.5,29.88,NE,46,2.0,4.0,35,0.00,,,0.00,meteohub,2013-07-08 14:07:00,
2013-07-08 07:12:00,79.5,47.5,29.89,ENE,57,1.0,4.0,35,0.00,,,0.00,meteohub,2013-07-08 14:12:00,
2013-07-08 07:17:00,80.2,47.5,29.89,NE,50,1.0,3.0,35,0.00,,,0.00,meteohub,2013-07-08 14:17:00,
2013-07-08 07:23:00,81.1,47.5,29.89,NNE,12,2.0,3.0,35,0.00,,,0.00,meteohub,2013-07-08 14:23:00,
2013-07-08 07:28:00,81.3,47.5,29.90,NW,319,2.0,4.0,35,0.00,,,0.00,meteohub,2013-07-08 14:28:00,
2013-07-08 07:33:00,81.1,47.5,29.90,WNW,288,2.0,4.0,35,0.00,,,0.00,meteohub,2013-07-08 14:33:00,
2013-07-08 07:38:00,81.5,47.3,29.90,NNE,16,2.0,4.0,35,0.00,,,0.00,meteohub,2013-07-08 14:38:00,
2013-07-08 07:43:00,81.7,47.3,29.90,NW,307,4.0,6.0,35,0.00,,,0.00,meteohub,2013-07-08 14:43:00,
2013-07-08 07:49:00,81.3,47.3,29.91,West,281,2.0,6.0,35,0.00,,,0.00,meteohub,2013-07-08 14:49:00,
2013-07-08 07:54:00,81.3,47.3,29.91,WNW,285,2.0,6.0,35,0.00,,,0.00,meteohub,2013-07-08 14:54:00,
2013-07-08 07:59:00,80.8,47.1,29.91,WNW,303,2.0,6.0,35,0.00,,,0.00,meteohub,2013-07-08 14:59:00,
2013-07-08 08:04:00,80.6,47.3,29.91,West,264,3.0,6.0,35,0.00,,,0.00,meteohub,2013-07-08 15:04:00,
2013-07-08 08:10:00,81.3,47.1,29.91,WNW,287,6.0,6.0,35,0.00,,,0.00,meteohub,2013-07-08 15:10:00,
2013-07-08 08:15:00,81.9,47.1,29.91,West,262,1.0,6.0,35,0.00,,,0.00,meteohub,2013-07-08 15:15:00,
2013-07-08 08:20:00,81.9,47.1,29.91,WNW,285,3.0,6.0,35,0.00,,,0.00,meteohub,2013-07-08 15:20:00,
2013-07-08 08:25:00,82.2,47.1,29.91,WNW,302,5.0,5.0,35,0.00,,,0.00,meteohub,2013-07-08 15:25:00,
2013-07-08 08:30:00,82.4,47.1,29.91,WNW,285,4.0,6.0,35,0.00,,,0.00,meteohub,2013-07-08 15:30:00,
2013-07-08 08:36:00,82.8,47.1,29.91,NW,326,3.0,6.0,35,0.00,,,0.00,meteohub,2013-07-08 15:36:00,
2013-07-08 08:41:00,82.8,47.1,29.91,WNW,295,1.0,6.0,35,0.00,,,0.00,meteohub,2013-07-08 15:41:00,
2013-07-08 08:46:00,82.6,47.1,29.91,West,264,2.0,6.0,35,0.00,,,0.00,meteohub,2013-07-08 15:46:00,
2013-07-08 08:51:00,82.2,47.1,29.92,NW,321,3.0,6.0,35,0.00,,,0.00,meteohub,2013-07-08 15:51:00,
2013-07-08 08:56:00,82.6,47.1,29.92,NW,312,1.0,6.0,35,0.00,,,0.00,meteohub,2013-07-08 15:56:00,
2013-07-08 09:02:00,83.1,47.1,29.92,NNW,346,3.0,5.0,35,0.00,,,0.00,meteohub,2013-07-08 16:02:00,
2013-07-08 09:07:00,83.3,47.1,29.92,WNW,298,0.0,5.0,35,0.00,,,0.00,meteohub,2013-07-08 16:07:00,
2013-07-08 09:12:00,84.0,47.1,29.92,NNW,333,2.0,5.0,35,0.00,,,0.00,meteohub,2013-07-08 16:12:00,
2013-07-08 09:17:00,85.1,47.1,29.91,NNW,335,4.0,6.0,35,0.00,,,0.00,meteohub,2013-07-08 16:17:00,
2013-07-08 09:22:00,85.1,47.1,29.92,NE,37,3.0,6.0,35,0.00,,,0.00,meteohub,2013-07-08 16:22:00,
2013-07-08 09:27:00,86.2,47.1,29.92,WNW,286,1.0,6.0,35,0.00,,,0.00,meteohub,2013-07-08 16:27:00,
2013-07-08 09:32:00,87.4,47.1,29.92,ENE,70,2.0,6.0,35,0.00,,,0.00,meteohub,2013-07-08 16:32:00,
2013-07-08 09:38:00,87.3,47.1,29.92,West,260,0.0,6.0,35,0.00,,,0.00,meteohub,2013-07-08 16:38:00,
2013-07-08 09:43:00,87.1,47.1,29.92,WNW,289,1.0,10.0,35,0.00,,,0.00,meteohub,2013-07-08 16:43:00,
2013-07-08 09:48:00,87.4,47.1,29.92,NNE,27,4.0,10.0,35,0.00,,,0.00,meteohub,2013-07-08 16:48:00,
2013-07-08 09:53:00,88.2,47.1,29.92,WNW,283,4.0,10.0,35,0.00,,,0.00,meteohub,2013-07-08 16:53:00,
2013-07-08 09:59:00,87.3,47.1,29.92,West,276,5.0,6.0,35,0.00,,,0.00,meteohub,2013-07-08 16:59:00,
2013-07-08 10:05:00,87.6,47.1,29.92,ENE,67,2.0,7.0,35,0.00,,,0.00,meteohub,2013-07-08 17:05:00,
2013-07-08 10:10:00,87.3,47.1,29.92,West,280,3.0,7.0,35,0.00,,,0.00,meteohub,2013-07-08 17:10:00,
2013-07-08 10:17:00,88.0,47.3,29.92,South,184,3.0,7.0,35,0.00,,,0.00,meteohub,2013-07-08 17:17:00,
2013-07-08 10:22:00,88.9,47.3,29.92,NNE,25,1.0,7.0,35,0.00,,,0.00,meteohub,2013-07-08 17:22:00,
2013-07-08 10:28:00,88.5,47.3,29.93,WSW,245,3.0,9.0,35,0.00,,,0.00,meteohub,2013-07-08 17:28:00,
2013-07-08 10:34:00,88.9,47.3,29.92,ENE,74,2.0,9.0,35,0.00,,,0.00,meteohub,2013-07-08 17:34:00,
2013-07-08 10:41:00,89.1,47.5,29.93,West,278,1.0,8.0,35,0.00,,,0.00,meteohub,2013-07-08 17:41:00,
2013-07-08 10:46:00,88.9,47.5,29.92,SSW,210,4.0,6.0,35,0.00,,,0.00,meteohub,2013-07-08 17:46:00,
2013-07-08 10:52:00,89.2,47.5,29.92,WNW,291,4.0,7.0,35,0.00,,,0.00,meteohub,2013-07-08 17:52:00,
2013-07-08 10:58:00,88.7,47.5,29.92,West,279,6.0,15.0,35,0.00,,,0.00,meteohub,2013-07-08 17:58:00,
2013-07-08 11:03:00,88.9,47.5,29.92,WSW,243,0.0,15.0,35,0.00,,,0.00,meteohub,2013-07-08 18:03:00,
2013-07-08 11:09:00,90.0,47.5,29.92,SSW,207,1.0,15.0,35,0.00,,,0.00,meteohub,2013-07-08 18:09:00,
2013-07-08 11:17:00,90.3,47.5,29.92,WNW,293,3.0,10.0,35,0.00,,,0.00,meteohub,2013-07-08 18:17:00,
2013-07-08 11:22:00,89.8,47.5,29.92,WNW,283,7.0,12.0,35,0.00,,,0.00,meteohub,2013-07-08 18:22:00,
2013-07-08 11:27:00,90.0,47.5,29.91,WNW,282,2.0,15.0,35,0.00,,,0.00,meteohub,2013-07-08 18:27:00,
2013-07-08 11:33:00,90.5,47.7,29.91,WNW,282,16.0,16.0,35,0.00,,,0.00,meteohub,2013-07-08 18:33:00,
2013-07-08 11:39:00,90.7,47.7,29.91,WSW,246,9.0,17.0,35,0.00,,,0.00,meteohub,2013-07-08 18:39:00,
2013-07-08 11:44:00,89.4,47.7,29.91,WNW,300,6.0,17.0,35,0.00,,,0.00,meteohub,2013-07-08 18:44:00,
2013-07-08 12:22:00,90.0,48.7,29.91,WNW,282,16.0,-999.0,36,0.00,,,0.00,meteohub,2013-07-08 19:22:00,
2013-07-08 12:27:00,89.6,48.7,29.91,WSW,250,11.0,-999.0,36,0.00,,,0.00,meteohub,2013-07-08 19:27:00,
2013-07-08 12:42:00,89.1,48.9,29.91,WSW,249,10.0,18.0,36,0.00,,,0.00,meteohub,2013-07-08 19:42:00,
2013-07-08 12:47:00,88.5,48.9,29.91,WSW,257,12.0,18.0,36,0.00,,,0.00,meteohub,2013-07-08 19:47:00,
2013-07-08 12:57:00,88.2,49.1,29.91,West,278,7.0,-999.0,36,0.00,,,0.00,meteohub,2013-07-08 19:57:00,
2013-07-08 13:02:00,88.3,49.1,29.91,NNE,32,2.0,-999.0,36,0.00,,,0.00,meteohub,2013-07-08 20:02:00,
2013-07-08 13:17:00,89.2,49.3,29.90,West,281,11.0,20.0,36,0.00,,,0.00,meteohub,2013-07-08 20:17:00,
2013-07-08 13:27:00,90.7,49.5,29.90,NE,50,4.0,19.0,36,0.00,,,0.00,meteohub,2013-07-08 20:27:00,
2013-07-08 13:37:00,89.4,49.5,29.90,NNW,348,6.0,16.0,36,0.00,,,0.00,meteohub,2013-07-08 20:37:00,
2013-07-08 14:02:00,90.5,49.8,29.90,WNW,302,9.0,18.0,36,0.00,,,0.00,meteohub,2013-07-08 21:02:00,
2013-07-08 14:22:00,89.8,50.0,29.90,NNE,31,4.0,17.0,36,0.00,,,0.00,meteohub,2013-07-08 21:22:00,
2013-07-08 14:32:00,90.0,50.0,29.90,WSW,240,9.0,18.0,36,0.00,,,0.00,meteohub,2013-07-08 21:32:00,
2013-07-08 14:42:00,88.9,50.2,29.90,ENE,58,7.0,19.0,36,0.00,,,0.00,meteohub,2013-07-08 21:42:00,
2013-07-08 14:52:00,89.2,50.4,29.89,East,89,12.0,21.0,36,0.00,,,0.00,meteohub,2013-07-08 21:52:00,
2013-07-08 15:02:00,88.7,50.5,29.89,North,353,7.0,21.0,36,0.00,,,0.00,meteohub,2013-07-08 22:02:00,
2013-07-08 15:12:00,89.2,50.7,29.89,West,263,14.0,22.0,36,0.00,,,0.00,meteohub,2013-07-08 22:12:00,
2013-07-08 15:22:00,89.2,50.7,29.89,West,276,9.0,22.0,36,0.00,,,0.00,meteohub,2013-07-08 22:22:00,
2013-07-08 15:32:00,90.0,50.9,29.89,NE,34,11.0,21.0,36,0.00,,,0.00,meteohub,2013-07-08 22:32:00,
2013-07-08 15:47:00,89.4,51.1,29.89,SW,229,13.0,23.0,36,0.00,,,0.00,meteohub,2013-07-08 22:47:00,
2013-07-08 15:57:00,88.9,51.3,29.88,NNE,26,6.0,20.0,36,0.00,,,0.00,meteohub,2013-07-08 22:57:00,
2013-07-08 16:02:00,89.2,51.3,29.88,SSW,207,8.0,20.0,36,0.00,,,0.00,meteohub,2013-07-08 23:02:00,
2013-07-08 16:12:00,89.1,51.4,29.88,West,259,10.0,26.0,36,0.00,,,0.00,meteohub,2013-07-08 23:12:00,
2013-07-08 16:27:00,89.2,51.6,29.88,NNE,13,5.0,17.0,36,0.00,,,0.00,meteohub,2013-07-08 23:27:00,
2013-07-08 16:32:00,89.1,51.6,29.88,NW,315,9.0,17.0,36,0.00,,,0.00,meteohub,2013-07-08 23:32:00,
2013-07-08 16:42:00,88.5,51.8,29.88,West,267,13.0,18.0,36,0.00,,,0.00,meteohub,2013-07-08 23:42:00,
2013-07-08 16:57:00,88.0,52.2,29.88,WSW,246,11.0,20.0,36,0.00,,,0.00,meteohub,2013-07-08 23:57:00,
2013-07-08 17:07:00,87.3,52.3,29.88,NNW,332,10.0,20.0,36,0.00,,,0.00,meteohub,2013-07-09 00:07:00,
2013-07-08 17:12:00,86.7,52.3,29.88,SW,225,19.0,20.0,36,0.00,,,0.00,meteohub,2013-07-09 00:12:00,
2013-07-08 17:17:00,86.7,52.3,29.87,ENE,61,7.0,23.0,36,0.00,,,0.00,meteohub,2013-07-09 00:17:00,
2013-07-08 17:22:00,86.4,52.5,29.88,West,266,13.0,23.0,36,0.00,,,0.00,meteohub,2013-07-09 00:22:00,
2013-07-08 17:32:00,85.8,52.5,29.87,WSW,246,17.0,20.0,36,0.00,,,0.00,meteohub,2013-07-09 00:32:00,
2013-07-08 17:37:00,85.3,52.5,29.88,NE,54,9.0,22.0,36,0.00,,,0.00,meteohub,2013-07-09 00:37:00,
2013-07-08 18:02:00,84.9,52.9,29.87,NNE,13,13.0,20.0,36,0.00,,,0.00,meteohub,2013-07-09 01:02:00,
2013-07-08 18:12:00,84.7,53.1,29.87,NNW,337,8.0,20.0,36,0.00,,,0.00,meteohub,2013-07-09 01:12:00,
2013-07-08 18:17:00,84.2,53.1,29.87,NNE,15,9.0,19.0,36,0.00,,,0.00,meteohub,2013-07-09 01:17:00,
2013-07-08 18:27:00,83.3,53.2,29.87,NW,304,13.0,18.0,36,0.00,,,0.00,meteohub,2013-07-09 01:27:00,
2013-07-08 18:37:00,82.2,53.4,29.88,SW,228,16.0,18.0,36,0.00,,,0.00,meteohub,2013-07-09 01:37:00,
2013-07-08 18:47:00,81.7,53.4,29.88,West,269,11.0,17.0,36,0.00,,,0.00,meteohub,2013-07-09 01:47:00,
2013-07-08 18:57:00,80.6,53.6,29.88,WNW,298,8.0,18.0,36,0.00,,,0.00,meteohub,2013-07-09 01:57:00,
2013-07-08 19:07:00,79.9,53.8,29.88,South,186,7.0,18.0,36,0.00,,,0.00,meteohub,2013-07-09 02:07:00,
2013-07-08 19:17:00,79.2,53.8,29.88,North,1,8.0,18.0,36,0.00,,,0.00,meteohub,2013-07-09 02:17:00,
2013-07-08 19:22:00,78.8,53.8,29.88,West,271,8.0,18.0,36,0.00,,,0.00,meteohub,2013-07-09 02:22:00,
2013-07-08 19:37:00,77.5,54.0,29.88,NNE,29,5.0,15.0,36,0.00,,,0.00,meteohub,2013-07-09 02:37:00,
2013-07-08 19:42:00,77.2,53.1,29.88,WSW,242,9.0,15.0,35,0.00,,,0.00,meteohub,2013-07-09 02:42:00,
2013-07-08 19:52:00,76.5,53.1,29.89,West,260,11.0,14.0,35,0.00,,,0.00,meteohub,2013-07-09 02:52:00,
2013-07-08 19:57:00,76.3,53.1,29.89,NNW,341,8.0,14.0,35,0.00,,,0.00,meteohub,2013-07-09 02:57:00,
2013-07-08 20:07:00,75.9,53.1,29.89,WSW,249,9.0,14.0,35,0.00,,,0.00,meteohub,2013-07-09 03:07:00,
2013-07-08 20:17:00,75.6,53.1,29.89,West,270,4.0,13.0,35,0.00,,,0.00,meteohub,2013-07-09 03:17:00,
2013-07-08 20:27:00,75.4,53.1,29.90,West,259,2.0,9.0,35,0.00,,,0.00,meteohub,2013-07-09 03:27:00,
2013-07-08 20:32:00,75.2,53.1,29.90,WSW,252,3.0,9.0,35,0.00,,,0.00,meteohub,2013-07-09 03:32:00,
2013-07-08 20:37:00,75.0,53.1,29.90,West,259,4.0,7.0,35,0.00,,,0.00,meteohub,2013-07-09 03:37:00,
2013-07-08 20:47:00,75.0,52.9,29.91,WSW,243,1.0,6.0,35,0.00,,,0.00,meteohub,2013-07-09 03:47:00,
2013-07-08 20:52:00,74.8,52.9,29.91,West,260,3.0,6.0,35,0.00,,,0.00,meteohub,2013-07-09 03:52:00,
2013-07-08 20:57:00,75.0,52.9,29.91,WSW,250,5.0,6.0,35,0.00,,,0.00,meteohub,2013-07-09 03:57:00,
2013-07-08 21:02:00,75.0,52.9,29.91,WNW,290,4.0,8.0,35,0.00,,,0.00,meteohub,2013-07-09 04:02:00,
2013-07-08 21:07:00,75.2,52.9,29.91,West,273,5.0,8.0,35,0.00,,,0.00,meteohub,2013-07-09 04:07:00,
2013-07-08 21:12:00,75.6,52.9,29.91,SW,236,3.0,9.0,35,0.00,,,0.00,meteohub,2013-07-09 04:12:00,
2013-07-08 21:17:00,75.6,52.9,29.91,West,266,8.0,9.0,35,0.00,,,0.00,meteohub,2013-07-09 04:17:00,
2013-07-08 21:27:00,75.6,52.9,29.91,West,277,7.0,11.0,35,0.00,,,0.00,meteohub,2013-07-09 04:27:00,
2013-07-08 21:32:00,75.6,52.9,29.91,WSW,257,7.0,11.0,35,0.00,,,0.00,meteohub,2013-07-09 04:32:00,
2013-07-08 21:42:00,75.7,52.7,29.92,WNW,287,7.0,11.0,35,0.00,,,0.00,meteohub,2013-07-09 04:42:00,
2013-07-08 21:47:00,75.9,52.7,29.92,WNW,284,7.0,11.0,35,0.00,,,0.00,meteohub,2013-07-09 04:47:00,
2013-07-08 21:57:00,75.9,52.7,29.92,West,266,8.0,11.0,35,0.00,,,0.00,meteohub,2013-07-09 04:57:00,
2013-07-08 22:02:00,75.7,52.7,29.92,West,274,5.0,10.0,35,0.00,,,0.00,meteohub,2013-07-09 05:02:00,
2013-07-08 22:12:00,75.9,52.5,29.93,WNW,287,8.0,9.0,35,0.00,,,0.00,meteohub,2013-07-09 05:12:00,
2013-07-08 22:17:00,76.3,52.5,29.93,WNW,282,6.0,10.0,35,0.00,,,0.00,meteohub,2013-07-09 05:17:00,
2013-07-08 22:27:00,76.3,52.5,29.93,WSW,245,6.0,9.0,35,0.00,,,0.00,meteohub,2013-07-09 05:27:00,
2013-07-08 22:32:00,76.5,52.5,29.93,West,270,6.0,11.0,35,0.00,,,0.00,meteohub,2013-07-09 05:32:00,
2013-07-08 22:37:00,76.5,52.5,29.93,WSW,255,7.0,11.0,35,0.00,,,0.00,meteohub,2013-07-09 05:37:00,
2013-07-08 22:42:00,76.5,52.3,29.93,West,264,7.0,11.0,35,0.00,,,0.00,meteohub,2013-07-09 05:42:00,
2013-07-08 22:47:00,76.5,52.3,29.94,West,280,9.0,10.0,35,0.00,,,0.00,meteohub,2013-07-09 05:47:00,
2013-07-08 22:57:00,76.6,52.3,29.93,WNW,288,8.0,10.0,35,0.00,,,0.00,meteohub,2013-07-09 05:57:00,
2013-07-08 23:02:00,76.6,52.3,29.93,SW,218,4.0,10.0,35,0.00,,,0.00,meteohub,2013-07-09 06:02:00,
2013-07-08 23:12:00,76.8,52.2,29.93,West,270,4.0,10.0,35,0.00,,,0.00,meteohub,2013-07-09 06:12:00,
2013-07-08 23:22:00,76.8,52.2,29.93,West,273,6.0,10.0,35,0.00,,,0.00,meteohub,2013-07-09 06:22:00,
2013-07-08 23:27:00,77.2,52.2,29.94,West,281,6.0,9.0,35,0.00,,,0.00,meteohub,2013-07-09 06:27:00,
2013-07-08 23:37:00,77.2,52.0,29.93,West,278,4.0,8.0,35,0.00,,,0.00,meteohub,2013-07-09 06:37:00,
2013-07-08 23:42:00,77.2,52.0,29.93,West,281,6.0,9.0,35,0.00,,,0.00,meteohub,2013-07-09 06:42:00,
2013-07-08 23:47:00,77.4,51.8,29.93,WNW,298,6.0,9.0,35,0.00,,,0.00,meteohub,2013-07-09 06:47:00,
2013-07-08 23:57:00,77.4,51.8,29.93,WSW,252,6.0,9.0,35,0.00,,,0.00,meteohub,2013-07-09 06:57:00,